[[{"header":{"parameterUnit":"m.s-1","parameterCategory":1,"la1":30.2992,"la2":30.254,"lo1":-89.0895,"lo2":-89.0443,"dy":0.0025,"dx":0.0025,"nx":19,"ny":19,"refTime":"2026-03-11T09:00:00:Z","depth":0,"parameterNumber":2,"parameterNumberName":"U-component_of_WINDS"},"data":[0,0,0,-0.7772,-0.7773,-0.7837,-0.7838,-0.7911,-0.7912,0,0,0,0,0,0,0,0,0,0,0,-0.7749,-0.7749,-0.7772,-0.7774,-0.7837,-0.7838,-0.7911,-0.7912,0,0,0,0,0,0,0,0,0,0,0,-0.7748,-0.7749,-0.7749,-0.7774,-0.7837,-0.7838,-0.7911,-0.7866,0,0,0,0,0,0,0,0,0,0,-0.7805,-0.7779,-0.7749,-0.7749,-0.7774,-0.7837,-0.7838,-0.7864,-0.7868,-0.7879,0,-0.7887,0,-0.79,-0.7916,-0.7916,0,0,0,-0.7777,-0.7774,-0.7796,-0.7749,-0.7775,-0.7837,-0.781,-0.7866,-0.7872,-0.7885,-0.7888,-0.7891,-0.7902,-0.7917,-0.7917,-0.7966,-0.7966,0,0,-0.7774,-0.7757,-0.7792,-0.7799,-0.7789,-0.7807,-0.7811,-0.787,-0.7872,-0.7888,-0.7893,-0.7903,-0.7917,-0.7917,-0.7966,-0.7966,0,0,0,-0.7761,-0.7755,-0.7775,-0.7796,-0.7808,-0.7809,-0.7814,-0.7869,-0.7877,-0.7894,-0.7904,-0.7917,-0.7918,-0.7966,-0.7966,-0.7953,0,0,0,-0.7759,-0.7748,-0.7773,-0.7764,-0.7807,-0.7839,-0.7812,-0.7873,-0.788,-0.7903,-0.7917,-0.7919,-0.7965,-0.7966,-0.7953,-0.7949,0,0,0,-0.7746,-0.7746,-0.7754,-0.7763,-0.779,-0.7839,-0.785,-0.7875,-0.7886,-0.7916,-0.7919,-0.7965,-0.7966,-0.7953,-0.795,-0.7957,0,0,0,-0.7727,-0.7741,-0.7753,-0.7773,-0.7789,-0.7831,-0.785,-0.7882,-0.7906,-0.7918,-0.7965,-0.7966,-0.7953,-0.795,-0.7957,-0.7961,-0.796,0,0,-0.7736,-0.7742,-0.7755,-0.7767,-0.7802,-0.7822,-0.7856,-0.7893,-0.7911,-0.7946,-0.7948,-0.7953,-0.795,-0.7957,-0.7966,-0.7966,0,0,0,-0.7752,-0.7761,-0.7774,-0.7796,-0.7826,-0.785,-0.7885,-0.7899,-0.793,-0.7926,-0.7959,-0.7957,-0.7962,-0.7964,-0.7964,-0.797,-0.7966,-0.7966,-0.7966,-0.7741,-0.7763,-0.7785,-0.7815,-0.7837,-0.7872,-0.7892,-0.7917,-0.7933,-0.794,-0.7951,-0.7953,-0.7955,-0.7955,-0.796,-0.7954,-0.7954,-0.7954,-0.7954,-0.7755,-0.7771,-0.7792,-0.7822,-0.7845,-0.787,-0.7905,-0.7915,-0.7942,-0.7947,-0.7953,-0.7956,-0.7954,-0.796,-0.7954,-0.7954,-0.7954,-0.7954,-0.7954,-0.775,-0.7762,-0.7779,-0.7814,-0.7838,-0.7868,-0.7893,-0.7913,-0.7933,-0.7938,-0.7951,-0.7952,-0.7954,-0.7943,-0.7943,-0.7943,-0.7943,-0.7943,-0.7943,-0.7738,-0.7757,-0.7776,-0.7808,-0.7825,-0.7851,-0.7887,-0.7904,-0.7929,-0.7942,-0.7942,-0.7957,-0.795,-0.7947,-0.7943,-0.7943,-0.7943,-0.7943,-0.7943,-0.7744,-0.7746,-0.7774,-0.7791,-0.7831,-0.7854,-0.788,-0.7914,-0.7932,-0.7943,-0.7957,-0.7949,-0.7956,-0.7956,-0.7954,-0.7952,-0.7952,-0.7952,-0.7952,-0.7739,-0.7745,-0.7778,-0.7804,-0.7833,-0.7859,-0.789,-0.7918,-0.7948,-0.796,-0.7964,-0.7963,-0.7963,-0.797,-0.797,-0.7969,-0.7971,-0.7971,-0.7971,-0.7744,-0.7753,-0.7776,-0.7805,-0.7837,-0.7865,-0.7895,-0.7924,-0.7958,-0.7972,-0.797,-0.797,-0.7969,-0.7968,-0.798,-0.798,-0.7977,0,0]},{"header":{"parameterUnit":"m.s-1","parameterCategory":1,"la1":30.2992,"la2":30.254,"lo1":-89.0895,"lo2":-89.0443,"dy":0.0025,"dx":0.0025,"nx":19,"ny":19,"refTime":"2026-03-11T09:00:00:Z","depth":0,"parameterNumber":3,"parameterNumberName":"V-component_of_WINDS"},"data":[0,0,0,5.2738,5.2742,5.2956,5.2957,5.3217,5.322,0,0,0,0,0,0,0,0,0,0,0,5.2668,5.2669,5.2737,5.2742,5.2956,5.2957,5.3217,5.322,0,0,0,0,0,0,0,0,0,0,0,5.2667,5.2669,5.2671,5.2743,5.2956,5.2957,5.3217,5.3059,0,0,0,0,0,0,0,0,0,0,5.2853,5.2783,5.2668,5.2671,5.2744,5.2956,5.2957,5.3052,5.3069,5.3115,0,5.3156,0,5.3192,5.3236,5.3237,0,0,0,5.2746,5.2769,5.2833,5.2671,5.2746,5.2956,5.2861,5.3062,5.3081,5.3138,5.316,5.317,5.3197,5.3238,5.3239,5.35,5.3501,0,0,5.2734,5.2702,5.2819,5.2845,5.2814,5.2854,5.2867,5.3074,5.3095,5.3161,5.3177,5.3201,5.324,5.3242,5.3499,5.35,0,0,0,5.2698,5.2693,5.2753,5.2834,5.2874,5.286,5.2876,5.3086,5.3108,5.3179,5.3204,5.3241,5.3244,5.3498,5.35,5.3522,0,0,0,5.2691,5.2672,5.2747,5.2729,5.287,5.2983,5.2883,5.3093,5.3118,5.3203,5.3241,5.3247,5.3497,5.3499,5.3519,5.3538,0,0,0,5.2656,5.2668,5.2697,5.2727,5.2819,5.298,5.3014,5.3099,5.3133,5.3238,5.3247,5.3496,5.3498,5.3517,5.3534,5.36,0,0,0,5.2608,5.2711,5.2697,5.2821,5.2817,5.2993,5.3013,5.3145,5.3238,5.3242,5.3497,5.3499,5.3516,5.3531,5.3597,5.3651,5.367,0,0,5.2719,5.2723,5.2799,5.2793,5.2964,5.2963,5.3137,5.325,5.3287,5.3426,5.3433,5.352,5.3533,5.3599,5.3786,5.3801,0,0,0,5.2823,5.2878,5.293,5.3019,5.311,5.3191,5.3281,5.3324,5.3445,5.3353,5.3562,5.3571,5.361,5.3638,5.3651,5.3688,5.351,5.351,5.351,5.2933,5.298,5.311,5.3183,5.3268,5.3363,5.3437,5.351,5.3528,5.3577,5.3619,5.3727,5.3758,5.3768,5.3806,5.3649,5.365,5.365,5.365,5.3103,5.3189,5.3215,5.3351,5.3399,5.3512,5.3608,5.3618,5.373,5.3698,5.3735,5.3698,5.3783,5.3819,5.3652,5.3652,5.3651,5.3651,5.3651,5.3182,5.3232,5.3284,5.342,5.3519,5.3588,5.3697,5.3735,5.3771,5.3808,5.3859,5.3858,5.3865,5.3829,5.383,5.383,5.383,5.3831,5.3831,5.3244,5.3303,5.3392,5.3501,5.3565,5.3653,5.3751,5.3814,5.3894,5.3913,5.3914,5.3929,5.3782,5.3746,5.3837,5.3836,5.3835,5.3835,5.3834,5.3402,5.3374,5.351,5.3575,5.3707,5.3805,5.3853,5.3979,5.4037,5.4089,5.4097,5.3982,5.3987,5.3977,5.3948,5.4086,5.4086,5.4086,5.4086,5.3471,5.3478,5.3629,5.373,5.3833,5.3892,5.4045,5.4123,5.4198,5.4237,5.4222,5.4185,5.4173,5.4186,5.4171,5.4145,5.4329,5.4329,5.433,5.3572,5.3592,5.3715,5.3792,5.39,5.3991,5.4137,5.4251,5.4329,5.434,5.4268,5.4258,5.4199,5.4177,5.4187,5.4164,5.4115,0,0]}]]